NOAA 16 DEB

Satellite information

Favourite Embed

Satellite Type and Status

DEBRISIN ORBIT

Key statistics

Satellite NOAA 16 DEB at a glance.

Uptime

9216

Days in orbit

Revolutions

≈ 14.5

Per day

Orbit

SSO

Sun Synchronous Orbit

Inclination

99.0

Latest

Satellite identification and parameters

Extended collection of information and parameters for NOAA 16 DEB.

Object identification

Identified? True

Debris? True

Object name: NOAA 16 DEB

International designator: 2000-055ES

Object number (NORAD): 41237

Object ID (CCSDS): 41237

Country: UNITED STATES OF AMERICA (US)

Current information (Y/N): Y

RCS size: SMALL

Orbital parameters

Period: 99.131 minutes

Inclination: 98.9998 deg

SMA: 7095.239 km

Apoapsis: 743.112 km

Periapsis: 691.096 km

RAAN: 217.4033 deg

Eccentricy: 0.00366556

Argument of periapsis: 238.318 deg

Mean anomaly: 121.4437 deg

Mean motion: 14.52620676 rev/day

Mean motion (dot): 0.00009771 rev/day2

B* drag term: 0.0023758774 1/REarth

Two-line elements (TLE)

Creation date: Dec. 14, 2025, 6:24 p.m.

Reference frame: TEME

Reference center: EARTH

Epoch: Dec. 14, 2025, 3:30 a.m. UTC

TLE line 0: 0 NOAA 16 DEB

TLE line 1: 1 41237U 00055ES 25348.14611566 .00009771 00000-0 23759-2 0 9991

TLE line 2: 2 41237 98.9998 217.4033 0036656 238.3180 121.4437 14.52620676523395

Live tracking on map

Real-time ground track for satellite NOAA 16 DEB.

In-orbit conjunctions

A list of the most updated potential collisions computed for object NOAA 16 DEB.

Target Orbit TCA Probability of collision Miss distance Type
FENGYUN 1C DEB SSO 2025-05-30 20:28:43 0.0001093936 45.0 (m) DEBRIS
CHUANG XIN 1 (CZ-1) SSO 2024-12-31 14:21:45 0.001180707 40.0 (m) PAYLOAD

Associated space launch

The NOAA K, L and M POES satellites begin the fifth generation of improved environmental monitoring in support of NOAA missions. The instrument payload has significant improvements and additions/deletions. The instrument changes have effected the spacecraft subsystems and data formats.

NOAA 16 DEB was lifted into orbit during the mission ‘Titan II SLV | NOAA 16’, on board a Titan II SLV space rocket.

The launch took place on Sept. 21, 2000, 10:22 a.m. from Space Launch Complex 4W.

For more information about the launch, click the button.

Launch to space Titan II SLV | NOAA 16
Titan II SLV | NOAA 16

Agency: N/A

Status: Launch Successful

Launch date: Sept. 21, 2000, 10:22 a.m. UTC

Rocket: Titan II SLV

Launch pad: Space Launch Complex 4W

Location: Vandenberg SFB, CA, USA

...

Latest news about this satellite

There are no fresh news available about this satellite. Check back as we update our databases every day.


Newsletter sign-up

Weekly statistics, charts and insights to help you stay on top of the space industry.